Location: Fountain Hills
(33.6120°N, 111.7170°W)
Time: 15:48:57
(UTC-07:00)

Daily predictions for brighter satellites

Satellite Brightness Start Highest point End
(mag) Time Altitude Azimuth Time Altitude Azimuth Time Altitude Azimuth
Cosmos 2298 Rocket 4.0 19:47:27 10° S 19:52:43 74° ESE 19:58:00 10° NNE
H-2A R/B 3.7 19:54:20 10° S 19:58:11 53° W 20:02:03 10° NNW
Meteor 2-3 Rocket 4.2 19:53:57 10° SSE 19:59:17 41° E 20:04:35 10° NNE
In-Cosmos 22 Rocket 4.3 19:56:39 10° S 20:02:23 81° E 20:08:14 10° N
Cosmos 2082 Rocket 2.7 19:58:29 10° NNW 20:04:05 65° WSW 20:09:41 10° S
Spot 2 Rocket 3.5 20:07:19 10° SSE 20:12:25 86° ENE 20:17:33 10° NNW
Cosmos 1833 Rocket 3.4 20:07:24 10° NNW 20:12:54 56° WSW 20:18:21 10° S
Helios 1B rocket 3.1 20:12:12 10° NNE 20:15:58 34° E 20:19:42 10° SSE
Cosmos 1315 Rocket 3.9 20:13:57 10° SSW 20:17:50 49° W 20:21:47 10° N
USA 186 1.5 20:17:27 10° S 20:20:00 72° W 20:22:47 10° NNW
Cosmos 1892 2.6 20:17:35 10° S 20:21:26 74° E 20:25:16 10° N
ISS -2.4 20:18:48 10° WSW 20:21:53 41° NW 20:24:59 10° NNE
OAO 3 Copernicus 4.4 20:17:40 10° SW 20:22:35 55° SSE 20:27:29 10° E
CZ-2D R/B 4.3 20:19:46 10° S 20:23:31 47° W 20:27:18 10° NNW
Tsikada Rocket 4.2 20:18:05 10° S 20:24:19 78° W 20:30:31 10° N
Cosmos 1943 Rocket 2.7 20:26:40 10° S 20:31:44 36° ESE 20:36:48 10° NE
Tiangong 2 2.2 20:30:36 10° NW 20:33:38 37° NNE 20:35:46 16° E
TIMED 4.4 20:34:12 10° S 20:38:32 76° ESE 20:42:55 10° NNE
Cosmos 2344 3.9 20:31:53 10° S 20:38:59 40° ESE 20:46:13 10° NE
Envisat 3.1 20:34:22 10° S 20:39:25 76° WSW 20:44:31 10° NNW
Cosmos 2263 4.2 20:35:54 10° S 20:41:33 60° ESE 20:47:12 10° NNE
CZ-4B DEB 3.2 20:41:44 28° ESE 20:42:39 37° ENE 20:45:24 10° N
Cosmos 372 Rocket 4.4 20:38:31 10° S 20:43:17 39° E 20:48:01 10° NNE
Helios 1A 2.9 20:42:20 17° SSE 20:45:32 71° ENE 20:49:44 10° N
Cosmos 1634 Rocket 4.1 20:39:39 10° N 20:45:55 63° E 20:51:19 14° SSE
SPOT 5 4.4 20:47:25 18° E 20:49:34 23° ENE 20:53:40 10° NNE
CENTAUR R/B 2.3 20:43:53 10° SSW 20:49:39 74° ESE 20:56:12 10° NE
COSMOS 2455 3.3 20:45:10 10° SW 20:51:07 64° WNW 20:57:05 10° NNE
SAR-Lupe-4 3.9 20:51:25 30° SE 20:52:45 47° ENE 20:56:13 10° N
Resurs 01 Rocket 3.7 20:49:48 10° SSW 20:53:27 25° W 20:57:08 10° NW
Cosmos 2369 Rocket 2.4 20:47:53 10° SSW 20:53:30 74° WNW 20:59:12 10° NNE
Cosmos 1125 Rocket 3.5 20:48:53 10° S 20:54:04 64° ESE 20:59:14 10° NNE
OAO 2 Rocket 4.0 20:50:16 10° W 20:55:00 41° SSW 20:57:22 25° SSE
Shenzhou-11 Module 2.0 20:53:40 10° WNW 20:56:44 74° NNE 20:57:31 46° ESE
Lacrosse 5 rocket 2.8 20:54:19 10° WSW 20:57:35 33° NW 21:00:55 10° NNE
Milstar 3 3.8 20:44:47 10° WSW 20:57:38 52° S 21:03:20 19° E
Cosmos 1606 3.4 20:54:51 10° NNE 20:58:18 33° E 20:58:52 31° E
YAOGAN 6 2.7 20:58:21 22° S 21:00:37 76° W 21:04:19 10° NNW
Cosmos 1346 Rocket 3.5 20:57:52 10° NNW 21:01:44 52° W 21:05:00 14° S
Cosmos 1939 Rocket 3.9 21:00:52 11° S 21:04:37 45° W 21:08:36 10° NNW
Delta 168 4.1 21:05:40 10° WSW 21:08:53 26° S 21:08:58 26° S
Delta 7925 Rocket 4.3 21:08:57 10° SW 21:13:16 30° SSE 21:13:27 30° SSE
SAR-Lupe-1 3.9 21:13:29 53° SSE 21:14:14 81° ENE 21:17:48 10° N
GPS 2-04 Rocket1 2.6 21:11:57 10° WNW 21:15:39 66° N 21:16:28 47° ENE
Okean 1-7 3.0 21:13:33 10° N 21:17:58 89° W 21:19:40 37° S
MetOp-B 4.1 21:17:02 35° SE 21:19:12 65° ENE 21:24:30 10° N
Cosmos 2279 Rocket 3.9 21:13:24 10° N 21:19:38 69° E 21:22:38 32° SSE
ATLAS 5 CENTAUR R/B 3.2 21:14:30 10° NNW 21:20:12 40° NE 21:22:41 29° E
Aureole 3 4.0 21:21:59 21° SW 21:23:33 37° W 21:26:21 10° NNW
H-2A R/B 2.8 21:22:48 34° E 21:23:57 38° ENE 21:28:51 10° N
Meteor 1-27 Rocket 4.1 21:18:57 10° N 21:24:26 45° ENE 21:25:44 39° ESE
Meteor 1-10 Rocket 4.2 21:19:14 10° N 21:25:11 83° E 21:27:56 34° SSE
Cosmos 1408 3.2 21:26:49 29° SSW 21:28:27 54° W 21:32:07 10° N
Cosmos 1656 Rocket 3.7 21:29:16 45° SE 21:30:12 50° ESE 21:35:30 10° NNE
ARGOS 3.1 21:29:07 44° SE 21:30:46 69° ENE 21:36:06 10° N
Cosmos 158 Rocket 3.8 21:26:49 10° NNW 21:31:41 68° ENE 21:32:34 55° SE
Meteor 2-6 Rocket 4.3 21:27:46 10° N 21:33:46 90° W 21:36:17 37° S
Cosmos 2180 Rocket 4.4 21:30:44 10° N 21:37:09 79° E 21:39:34 41° SSE
Cosmos 1733 Rocket 3.0 21:38:50 64° ENE 21:38:50 64° ENE 21:42:54 10° NNE
Cosmos 1825 3.3 21:38:01 26° SW 21:39:37 41° W 21:43:12 10° N
Cosmos 1782 3.4 21:35:54 10° NNW 21:39:47 53° W 21:40:31 46° SW
ERS-1 Rocket 3.5 21:43:33 33° SSW 21:45:29 53° W 21:50:24 10° NNW
SL-08 RB Rocket 3.6 21:45:10 72° SE 21:45:32 78° ENE 21:50:13 10° N
Intercosmos 25 Rocket 4.1 21:45:10 10° N 21:51:29 54° ENE 21:51:29 54° ENE
Cosmos 2084 4.4 21:51:06 10° NW 21:54:26 36° WSW 21:54:26 36° WSW
Cosmos 1862 3.9 21:55:14 50° W 21:55:26 51° W 21:59:19 10° N
Landsat 7 4.3 21:56:22 47° NE 21:56:22 47° NE 22:00:30 10° N
Nimbus 7 Rocket 4.3 21:51:35 10° NNE 21:57:30 90° ESE 21:59:17 48° SSW
Cosmos 1048 Rocket 4.2 21:54:12 10° NNW 21:59:26 65° WSW 22:00:12 57° SSW
Lacrosse 4 Rocket 1.8 21:58:16 10° NNW 22:02:08 64° N 22:02:08 64° N
Meteor 2-20 4.3 22:04:28 66° SSE 22:05:18 78° E 22:11:25 10° N
Meteor 2-20 Rocket 4.4 22:06:18 60° E 22:06:22 60° E 22:12:23 10° NNE
OAO 3 Copernicus 4.3 22:02:02 10° W 22:06:59 78° NNW 22:06:59 78° NNW
ATLAS CENTAUR R/B 4.0 22:12:21 10° NE 22:12:21 10° NE 22:12:23 10° NE
Tiangong 2 4.1 22:07:39 10° W 22:08:09 13° W 22:08:09 13° W
Terra 2.6 22:12:01 42° NE 22:12:01 42° NE 22:15:38 10° N
USA 215 3.1 22:09:49 61° SE 22:11:07 86° NE 22:17:43 10° NW
Cosmos 2026 Rocket 4.5 22:12:37 44° ENE 22:12:37 44° ENE 22:17:50 10° NNE
Cosmos 2219 4.2 22:07:17 10° N 22:12:18 33° ENE 22:12:18 33° ENE
Cosmos 1943 Rocket 4.2 22:10:56 10° WSW 22:15:29 25° WNW 22:20:03 10° N
DMSP B5D2-2 4.1 22:14:05 10° N 22:19:17 74° WNW 22:19:27 73° W
Cosmos 1674 Rocket 4.4 22:15:35 10° N 22:18:42 47° NNW 22:18:42 47° NNW
SPOT 1/Viking Rocket 3.8 22:22:10 59° WSW 22:22:11 59° WSW 22:27:20 10° NNW
Cosmos 2251 Rocket 4.2 22:17:14 10° N 22:21:25 44° NE 22:21:25 44° NE
SPOT 5 4.1 22:26:39 37° WSW 22:27:18 38° W 22:32:16 10° NNW
H-2A R/B 3.9 22:31:06 24° NNE 22:31:06 24° NNE 22:32:57 10° N
GEOS 3 Rocket 4.1 22:35:54 51° NNE 22:35:54 51° NNE 22:40:19 10° NNW
Cosmos 1092 Rocket 4.3 22:36:35 55° WSW 22:37:25 60° W 22:43:29 10° N
SME Rocket 4.3 22:41:40 68° ENE 22:41:49 68° ENE 22:50:28 10° N
Cosmos 1627 Rocket 4.5 22:46:11 79° NW 22:46:11 79° NW 22:52:17 10° N
Cosmos 2297 Rocket 4.0 22:56:29 10° N 23:00:02 22° NE 23:00:02 22° NE
H-2A R/B 3.9 23:03:26 23° W 23:03:26 23° W 23:07:33 10° NW
H-2A ROCKET BODY 4.5 22:57:57 10° WSW 23:29:24 - SE 22:58:46 16° WSW
ATLAS 5 CENTAUR R/B 3.6 22:59:19 10° NW 23:04:14 33° W 23:04:14 33° W
Cosmos 1867 4.5 22:59:36 10° NNW 23:03:23 45° NW 23:03:23 45° NW
Milstar 3 4.3 23:33:04 10° W 23:36:55 27° WSW 23:36:55 27° WSW
CZ-2C R/B 4.2 23:43:24 10° N 23:46:00 31° N 23:46:00 31° N
Cosmos 2227 Rocket 3.5 23:45:00 10° NNW 23:48:20 37° N 23:48:20 37° N
